TimeCDT,TemperatureF,Dew PointF,Humidity,Sea Level PressureIn,VisibilityMPH,Wind Direction,Wind SpeedMPH,Gust SpeedMPH,PrecipitationIn,Events,Conditions,WindDirDegrees,DateUTC
12:15 AM,50.0,42.8,76,29.76,10.0,Calm,Calm,-,N/A,Rain,Light Rain,0,2013-04-29 05:15:00
12:35 AM,46.4,46.4,100,29.78,10.0,Calm,Calm,-,N/A,Rain,Light Rain,0,2013-04-29 05:35:00
12:55 AM,46.4,46.4,100,29.77,7.0,Calm,Calm,-,0.01,Rain,Light Rain,0,2013-04-29 05:55:00
1:15 AM,46.4,46.4,100,29.79,2.5,Calm,Calm,-,0.01,Rain,Light Rain,0,2013-04-29 06:15:00
1:35 AM,44.6,44.6,100,29.81,1.2,West,5.8,-,0.04,Rain,Heavy Rain,260,2013-04-29 06:35:00
1:55 AM,50.0,50.0,100,29.80,4.0,West,8.1,-,0.12,Rain,Heavy Rain,280,2013-04-29 06:55:00
2:15 AM,50.0,50.0,100,29.79,4.0,Calm,Calm,-,0.05,Rain,Rain,0,2013-04-29 07:15:00
2:35 AM,50.0,50.0,100,29.77,1.5,SE,3.5,-,0.10,Rain,Heavy Rain,130,2013-04-29 07:35:00
2:55 AM,48.2,48.2,100,29.76,1.5,Calm,Calm,-,0.15,Rain,Rain,0,2013-04-29 07:55:00
3:15 AM,48.2,48.2,100,29.76,0.2,Calm,Calm,-,0.01,Rain,Light Rain,0,2013-04-29 08:15:00
3:35 AM,46.4,46.4,100,29.76,0.5,South,3.5,-,0.01,,Drizzle,170,2013-04-29 08:35:00
3:55 AM,46.4,46.4,100,29.77,0.5,South,4.6,-,0.02,,Drizzle,180,2013-04-29 08:55:00
4:15 AM,46.4,46.4,100,29.78,2.0,Calm,Calm,-,N/A,,Light Drizzle,0,2013-04-29 09:15:00
4:35 AM,46.4,46.4,100,29.78,0.8,Calm,Calm,-,N/A,,Overcast,0,2013-04-29 09:35:00
4:55 AM,46.4,46.4,100,29.78,0.2,Calm,Calm,-,N/A,Fog,Fog,0,2013-04-29 09:55:00
5:15 AM,46.4,46.4,100,29.79,0.2,Calm,Calm,-,N/A,Fog,Fog,0,2013-04-29 10:15:00
5:35 AM,44.6,44.6,100,29.79,0.2,Calm,Calm,-,N/A,Fog,Fog,0,2013-04-29 10:35:00
5:55 AM,44.6,44.6,100,29.79,0.2,Calm,Calm,-,N/A,Fog,Fog,0,2013-04-29 10:55:00
6:15 AM,44.6,44.6,100,29.79,0.2,Calm,Calm,-,N/A,Fog,Fog,0,2013-04-29 11:15:00
6:35 AM,44.6,44.6,100,29.79,0.2,Calm,Calm,-,N/A,Fog,Fog,0,2013-04-29 11:35:00
6:55 AM,44.6,44.6,100,29.79,0.2,Calm,Calm,-,N/A,Fog,Fog,0,2013-04-29 11:55:00
7:15 AM,46.4,46.4,100,29.80,0.2,Calm,Calm,-,N/A,Fog,Fog,0,2013-04-29 12:15:00
7:35 AM,46.4,46.4,100,29.79,0.2,Calm,Calm,-,N/A,Fog,Fog,0,2013-04-29 12:35:00
7:55 AM,46.4,46.4,100,29.79,0.5,North,3.5,-,N/A,Fog,Fog,360,2013-04-29 12:55:00
8:15 AM,46.4,46.4,100,29.79,0.2,Calm,Calm,-,N/A,Fog,Fog,0,2013-04-29 13:15:00
8:35 AM,46.4,46.4,100,29.80,0.2,Calm,Calm,-,N/A,Fog,Fog,0,2013-04-29 13:35:00
8:55 AM,50.0,50.0,100,29.80,0.8,Calm,Calm,-,N/A,,Overcast,0,2013-04-29 13:55:00
9:15 AM,50.0,50.0,100,29.80,0.2,Calm,Calm,-,N/A,Fog,Fog,0,2013-04-29 14:15:00
9:35 AM,50.0,50.0,100,29.80,0.2,Calm,Calm,-,N/A,Fog,Fog,0,2013-04-29 14:35:00
9:55 AM,50.0,50.0,100,29.80,0.8,West,3.5,-,N/A,,Overcast,270,2013-04-29 14:55:00
10:15 AM,50.0,50.0,100,29.80,3.0,Calm,Calm,-,N/A,,Overcast,0,2013-04-29 15:15:00
10:35 AM,51.8,51.8,100,29.80,5.0,Calm,Calm,-,N/A,,Overcast,0,2013-04-29 15:35:00
10:55 AM,51.8,51.8,100,29.80,7.0,Calm,Calm,-,N/A,,Overcast,0,2013-04-29 15:55:00
11:15 AM,53.6,53.6,100,29.80,10.0,ESE,3.5,-,N/A,,Mostly Cloudy,120,2013-04-29 16:15:00
11:35 AM,55.4,53.6,94,29.80,5.0,SSE,3.5,-,N/A,,Scattered Clouds,150,2013-04-29 16:35:00
11:55 AM,59.0,46.4,63,29.79,5.0,Calm,Calm,-,N/A,,Haze,0,2013-04-29 16:55:00
12:15 PM,60.8,46.4,59,29.79,7.0,SE,3.5,-,N/A,,Clear,140,2013-04-29 17:15:00
12:35 PM,62.6,46.4,55,29.79,10.0,ESE,6.9,-,N/A,,Clear,120,2013-04-29 17:35:00
12:55 PM,62.6,46.4,55,29.78,7.0,SSE,6.9,-,N/A,,Clear,150,2013-04-29 17:55:00
1:15 PM,64.4,46.4,52,29.77,10.0,SE,4.6,-,N/A,,Scattered Clouds,140,2013-04-29 18:15:00
1:35 PM,62.6,46.4,55,29.76,5.0,SSE,4.6,-,N/A,,Haze,150,2013-04-29 18:35:00
1:55 PM,62.6,46.4,55,29.75,5.0,SSE,3.5,-,N/A,,Haze,150,2013-04-29 18:55:00
2:15 PM,64.4,46.4,52,29.75,7.0,SSE,6.9,-,N/A,,Scattered Clouds,160,2013-04-29 19:15:00
2:35 PM,68.0,46.4,46,29.74,7.0,SSE,8.1,-,N/A,,Mostly Cloudy,150,2013-04-29 19:35:00
2:55 PM,68.0,44.6,43,29.73,10.0,SW,4.6,-,N/A,,Mostly Cloudy,220,2013-04-29 19:55:00
3:15 PM,68.0,44.6,43,29.73,10.0,SSE,5.8,-,N/A,,Mostly Cloudy,160,2013-04-29 20:15:00
3:35 PM,68.0,42.8,40,29.72,10.0,SSW,5.8,-,N/A,,Mostly Cloudy,210,2013-04-29 20:35:00
3:55 PM,68.0,42.8,40,29.72,10.0,SSE,5.8,-,N/A,,Scattered Clouds,160,2013-04-29 20:55:00
4:15 PM,68.0,44.6,43,29.72,10.0,SE,8.1,-,N/A,,Scattered Clouds,140,2013-04-29 21:15:00
4:35 PM,68.0,42.8,40,29.71,10.0,South,4.6,-,N/A,,Scattered Clouds,190,2013-04-29 21:35:00
4:55 PM,68.0,42.8,40,29.70,10.0,SSW,6.9,-,N/A,,Scattered Clouds,200,2013-04-29 21:55:00
5:15 PM,69.8,42.8,38,29.70,10.0,SSE,5.8,-,N/A,,Scattered Clouds,160,2013-04-29 22:15:00
5:35 PM,69.8,42.8,38,29.70,10.0,SE,6.9,-,N/A,,Mostly Cloudy,140,2013-04-29 22:35:00
5:55 PM,68.0,42.8,40,29.70,10.0,SE,6.9,-,N/A,,Mostly Cloudy,140,2013-04-29 22:55:00
6:15 PM,62.6,46.4,55,29.71,10.0,South,12.7,20.7,N/A,,Mostly Cloudy,170,2013-04-29 23:15:00
6:35 PM,60.8,50.0,68,29.72,10.0,South,9.2,-,N/A,,Mostly Cloudy,170,2013-04-29 23:35:00
6:55 PM,60.8,50.0,68,29.71,10.0,South,5.8,-,N/A,,Mostly Cloudy,170,2013-04-29 23:55:00
7:15 PM,59.0,50.0,72,29.72,10.0,South,9.2,-,N/A,,Scattered Clouds,170,2013-04-30 00:15:00
7:35 PM,59.0,51.8,77,29.72,10.0,SSE,10.4,-,N/A,Rain,Light Rain,150,2013-04-30 00:35:00
7:55 PM,55.4,55.4,100,29.72,5.0,SE,3.5,-,N/A,Rain,Light Rain,140,2013-04-30 00:55:00
8:15 PM,55.4,55.4,100,29.72,7.0,SE,5.8,-,N/A,,Overcast,130,2013-04-30 01:15:00
8:35 PM,55.4,53.6,94,29.72,7.0,SE,4.6,-,N/A,,Mostly Cloudy,130,2013-04-30 01:35:00
8:55 PM,55.4,55.4,100,29.72,7.0,SSE,4.6,-,N/A,,Mostly Cloudy,150,2013-04-30 01:55:00
9:15 PM,55.4,53.6,94,29.72,7.0,SSE,4.6,-,N/A,,Overcast,160,2013-04-30 02:15:00
9:35 PM,55.4,53.6,94,29.73,7.0,SSE,5.8,-,N/A,,Overcast,150,2013-04-30 02:35:00
9:55 PM,53.6,53.6,100,29.72,7.0,SSE,4.6,-,N/A,,Scattered Clouds,150,2013-04-30 02:55:00
10:15 PM,53.6,53.6,100,29.72,5.0,SSE,5.8,-,N/A,,Scattered Clouds,150,2013-04-30 03:15:00
10:35 PM,53.6,53.6,100,29.72,5.0,SSE,6.9,-,N/A,,Scattered Clouds,150,2013-04-30 03:35:00
10:55 PM,53.6,53.6,100,29.72,5.0,SSE,5.8,-,N/A,,Clear,160,2013-04-30 03:55:00
11:15 PM,51.8,51.8,100,29.72,4.0,SSE,6.9,-,N/A,,Clear,160,2013-04-30 04:15:00
11:35 PM,51.8,51.8,100,29.71,4.0,SSE,4.6,-,N/A,,Clear,160,2013-04-30 04:35:00
11:55 PM,51.8,51.8,100,29.71,5.0,South,6.9,-,N/A,,Mostly Cloudy,170,2013-04-30 04:55:00